FW1193 Weather Reports


time (UTC)temp
F
wind
direction
speed
knots
gust
knots
rain 1hr
in
rain 24hr
in
rain mn
in
humidity
%
barometer
mb
20260505035801 62 57 0.0 0.0 0.00 0.00 0.00 81 1012.2
20260505035304 62 57 0.0 0.0 0.00 0.00 0.00 81 1012.2
20260505034738 62 57 0.0 0.0 0.00 0.00 0.00 81 1012.1
20260505034230 63 56 0.0 0.0 0.00 0.00 0.00 81 1012.2
20260505033956 63 57 0.0 0.0 0.00 0.00 0.00 81 1012.2
20260505033224 63 57 0.0 0.9 0.00 0.00 0.00 80 1012.1
20260505032726 63 57 0.0 0.9 0.00 0.00 0.00 80 1012.2
20260505032455 63 57 0.0 0.9 0.00 0.00 0.00 79 1012.2
20260505031719 63 57 0.0 0.0 0.00 0.00 0.00 79 1012.2
20260505031208 63 57 0.0 0.0 0.00 0.00 0.00 78 1012.2
20260505030708 64 57 0.0 0.9 0.00 0.00 0.00 77 1012.2
20260505030204 64 57 0.0 0.9 0.00 0.00 0.00 77 1012.2
20260505025702 64 56 0.0 0.9 0.00 0.00 0.00 77 1012.0
20260505025201 64 57 0.0 0.9 0.00 0.00 0.00 76 1012.0
20260505024700 64 57 0.0 0.9 0.00 0.00 0.00 76 1011.9
20260505024155 64 56 0.0 0.9 0.00 0.00 0.00 76 1011.9
20260505023651 64 57 0.0 0.9 0.00 0.00 0.00 75 1011.8
20260505023148 64 57 0.0 0.9 0.00 0.00 0.00 75 1011.8
20260505022646 65 57 0.0 0.9 0.00 0.00 0.00 75 1011.7
20260505022416 65 57 0.0 0.9 0.00 0.00 0.00 74 1011.6
20260505021645 65 57 0.0 0.9 0.00 0.00 0.00 73 1011.6
20260505021143 65 56 0.0 0.9 0.00 0.00 0.00 72 1011.7
20260505020642 65 56 0.0 0.0 0.00 0.00 0.00 72 1011.8
20260505020138 66 56 0.0 0.0 0.00 0.00 0.00 71 1011.7
20260505015641 66 57 0.0 0.0 0.00 0.00 0.00 69 1011.7
20260505015408 66 56 0.0 0.0 0.00 0.00 0.00 69 1011.6
20260505014907 67 56 0.0 0.0 0.00 0.00 0.00 69 1011.5
20260505014137 67 56 0.0 0.0 0.00 0.00 0.00 68 1011.5
20260505013636 67 56 0.0 0.0 0.00 0.00 0.00 68 1011.6
20260505013129 67 57 0.0 0.0 0.00 0.00 0.00 69 1011.5
20260505012627 68 56 0.0 0.0 0.00 0.00 0.00 67 1011.4
20260505012401 68 56 0.0 0.0 0.00 0.00 0.00 66 1011.4
20260505011627 68 57 0.0 0.9 0.00 0.00 0.00 67 1011.2
20260505011126 69 57 0.0 0.9 0.00 0.00 0.00 66 1011.2
20260505010625 69 56 0.0 0.9 0.00 0.00 0.00 65 1011.2
20260505010358 69 57 0.0 0.9 0.00 0.00 0.00 63 1011.2
20260505005620 70 57 0.0 0.9 0.00 0.00 0.00 62 1011.3
20260505005120 70 56 0.0 0.9 0.00 0.00 0.00 61 1011.4
20260505004621 70 57 0.0 0.9 0.00 0.00 0.00 63 1011.2
20260505004121 71 57 0.0 1.7 0.00 0.00 0.00 63 1011.1
20260505003609 71 57 0.0 2.6 0.00 0.00 0.00 61 1011.2
20260505003105 71 57 0.0 2.6 0.00 0.00 0.00 62 1011.2
20260505002553 72 39 0.0 0.9 0.00 0.00 0.00 61 1011.4
20260505002047 72 39 0.0 0.9 0.00 0.00 0.00 60 1011.5
20260505001544 73 39 0.0 1.7 0.00 0.00 0.00 60 1011.5
20260505001027 73 39 0.9 1.7 0.00 0.00 0.00 61 1011.5
20260505000523 73 39 0.0 1.7 0.00 0.00 0.00 59 1011.6
20260505000255 74 39 0.0 1.7 0.00 0.00 0.00 57 1011.7
20260504235756 74 39 0.0 1.7 0.00 0.00 0.00 57 1011.9
20260504235021 75 39 0.0 1.7 0.00 0.00 0.00 56 1011.8
20260504234521 75 39 0.0 1.7 0.00 0.00 0.00 55 1011.9
20260504234021 76 38 0.0 0.9 0.00 0.00 0.00 55 1011.9
20260504233519 76 38 0.0 1.7 0.00 0.00 0.00 53 1011.9
20260504233017 76 47 0.0 1.7 0.00 0.00 0.00 55 1011.8
20260504232518 77 44 0.9 1.7 0.00 0.00 0.00 51 1011.8
20260504232018 77 44 0.9 1.7 0.00 0.00 0.00 54 1011.9
20260504231516 78 46 0.0 1.7 0.00 0.00 0.00 50 1012.0
20260504231015 78 46 0.0 2.6 0.00 0.00 0.00 50 1012.0
20260504230506 79 110 0.0 2.6 0.00 0.00 0.00 49 1012.0
20260504230005 79 0 0.0 2.6 0.00 0.00 0.00 49 1012.0
20260504225503 80 0 0.0 2.6 0.00 0.00 0.00 50 1011.9
20260504224955 80 0 0.0 1.7 0.00 0.00 0.00 50 1012.0
20260504224441 80 355 0.0 2.6 0.00 0.00 0.00 49 1012.1
20260504224212 80 355 0.9 4.3 0.00 0.00 0.00 49 1012.2
20260504223440 80 355 0.9 4.3 0.00 0.00 0.00 49 1012.2
20260504222940 80 76 0.9 3.5 0.00 0.00 0.00 47 1012.2
20260504222441 80 98 0.9 2.6 0.00 0.00 0.00 49 1012.2
20260504222209 80 98 0.9 4.3 0.00 0.00 0.00 48 1012.2
20260504221439 80 327 0.9 4.3 0.00 0.00 0.00 49 1012.4
20260504220933 80 76 0.9 2.6 0.00 0.00 0.00 51 1012.4
20260504220431 80 301 0.9 2.6 0.00 0.00 0.00 47 1012.4
20260504215932 80 294 0.9 2.6 0.00 0.00 0.00 48 1012.4
20260504215431 80 336 0.9 3.5 0.00 0.00 0.00 47 1012.6
20260504214928 80 117 0.9 5.2 0.00 0.00 0.00 47 1012.6
20260504214428 80 346 0.9 5.2 0.00 0.00 0.00 49 1012.6
20260504213927 81 101 0.9 3.5 0.00 0.00 0.00 50 1012.6
20260504213424 80 314 0.9 6.1 0.00 0.00 0.00 47 1012.6
20260504212923 81 105 0.9 6.1 0.00 0.00 0.00 47 1012.6
20260504212412 81 349 0.9 3.5 0.00 0.00 0.00 45 1012.6
20260504211904 81 22 0.9 3.5 0.00 0.00 0.00 47 1012.6
20260504211633 81 30 0.9 3.5 0.00 0.00 0.00 45 1012.7
20260504210904 81 296 0.9 3.5 0.00 0.00 0.00 48 1012.7
20260504210405 80 306 0.9 5.2 0.00 0.00 0.00 48 1012.8
20260504205904 80 105 1.7 5.2 0.00 0.00 0.00 49 1012.9
20260504205621 80 294 1.7 5.2 0.00 0.00 0.00 48 1013.1
20260504204845 80 296 1.7 5.2 0.00 0.00 0.00 46 1013.4
20260504204839 80 331 0.9 3.5 0.00 0.00 0.00 49 1013.2
20260504203839 80 317 1.7 5.2 0.00 0.00 0.00 49 1013.4
20260504203339 80 265 1.7 5.2 0.00 0.00 0.00 48 1013.4
20260504202841 80 328 0.9 4.3 0.00 0.00 0.00 46 1013.4
20260504202341 80 146 0.9 5.2 0.00 0.00 0.00 49 1013.6
20260504202108 80 243 0.9 5.2 0.00 0.00 0.00 49 1013.7
20260504201332 80 76 1.7 4.3 0.00 0.00 0.00 48 1013.9
20260504201104 79 306 1.7 5.2 0.00 0.00 0.00 47 1013.9
20260504200604 79 36 0.9 5.2 0.00 0.00 0.00 48 1013.8
20260504195832 80 111 0.9 3.5 0.00 0.00 0.00 48 1013.9
20260504195332 79 81 0.9 2.6 0.00 0.00 0.00 49 1013.9
20260504194830 79 245 0.9 3.5 0.00 0.00 0.00 47 1014.1
20260504194331 80 110 0.9 3.5 0.00 0.00 0.00 45 1014.1
20260504193830 80 52 0.9 5.2 0.00 0.00 0.00 45 1014.3
20260504193328 80 355 0.9 5.2 0.00 0.00 0.00 46 1014.4
20260504192826 80 295 0.9 4.3 0.00 0.00 0.00 46 1014.5
20260504192327 80 267 0.9 4.3 0.00 0.00 0.00 52 1014.5
20260504191821 79 270 0.9 5.2 0.00 0.00 0.00 49 1014.7
20260504191319 79 138 1.7 6.1 0.00 0.00 0.00 51 1014.7
20260504191315 79 319 0.9 5.2 0.00 0.00 0.00 48 1014.6
20260504190308 78 109 2.6 6.1 0.00 0.00 0.00 48 1014.7
20260504185811 78 277 2.6 6.1 0.00 0.00 0.00 45 1014.8
20260504185246 79 296 0.9 4.3 0.00 0.00 0.00 52 1014.7
20260504184747 79 298 0.9 3.5 0.00 0.00 0.00 51 1014.8
20260504184241 79 49 0.9 4.3 0.00 0.00 0.00 51 1014.9
20260504183737 79 314 0.9 4.3 0.00 0.00 0.00 49 1014.8
20260504183236 79 288 0.9 4.3 0.00 0.00 0.00 50 1015.0
20260504183009 78 186 0.9 5.2 0.00 0.00 0.00 46 1015.2
20260504182237 78 267 0.9 5.2 0.00 0.00 0.00 54 1015.1
20260504181731 78 339 0.9 5.2 0.00 0.00 0.00 47 1015.2
20260504181228 78 21 1.7 5.2 0.00 0.00 0.00 50 1015.4
20260504180729 78 349 1.7 4.3 0.00 0.00 0.00 53 1015.5
20260504180229 78 279 0.9 4.3 0.00 0.00 0.00 45 1015.6
20260504175727 78 58 0.9 5.2 0.00 0.00 0.00 48 1015.6
20260504175226 78 245 0.9 5.2 0.00 0.00 0.00 46 1015.6
20260504174727 78 265 0.9 5.2 0.00 0.00 0.00 51 1015.7
20260504174225 78 63 1.7 6.1 0.00 0.00 0.00 51 1015.7
20260504173724 77 49 1.7 6.1 0.00 0.00 0.00 49 1015.8
20260504173224 77 302 0.9 5.2 0.00 0.00 0.00 49 1015.9
20260504172946 77 68 0.9 3.5 0.00 0.00 0.00 47 1015.9
20260504172821 78 72 0.9 3.5 0.00 0.00 0.00 50 1015.8
20260504171707 77 67 1.7 4.3 0.00 0.00 0.00 45 1015.8
20260504171207 77 78 0.9 4.3 0.00 0.00 0.00 48 1016.1
20260504170706 77 72 0.9 3.5 0.00 0.00 0.00 46 1016.1
20260504170202 77 22 0.9 3.5 0.00 0.00 0.00 49 1016.1
20260504160129 76 46 0.9 2.6 0.00 0.00 0.00 49 1016.5
20260504150549 74 128 0.9 1.7 0.00 0.00 0.00 61 1016.6
20260504140434 69 311 0.9 2.6 0.00 0.00 0.00 75 1016.5
20260504130342 60 319 0.0 0.0 0.00 0.00 0.00 95 1016.6
20260504120247 53 319 0.0 0.0 0.00 0.00 0.00 94 1016.3
20260504110634 52 319 0.0 0.0 0.00 0.00 0.00 94 1015.9
20260504110113 52 319 0.0 0.0 0.00 0.00 0.00 94 1015.9
20260504100421 53 319 0.0 0.0 0.00 0.00 0.00 94 1015.9
20260504090140 54 319 0.0 0.0 0.00 0.00 0.00 93 1016.2
20260504081914 54 319 0.0 0.0 0.00 0.00 0.00 92 1016.3
20260504081341 54 319 0.0 0.0 0.00 0.00 0.00 92 1016.3
20260504080841 54 319 0.0 0.0 0.00 0.00 0.00 92 1016.4
20260504080550 54 319 0.0 0.0 0.00 0.00 0.00 92 1016.4
20260504070127 55 319 0.0 0.0 0.00 0.00 0.00 91 1016.6
20260504050202 57 319 0.0 0.0 0.00 0.00 0.00 88 1017.3
20260504045645 57 319 0.0 0.0 0.00 0.00 0.00 88 1017.3
20260504045405 57 319 0.0 0.0 0.00 0.00 0.00 88 1017.4
20260504044634 57 319 0.0 0.0 0.00 0.00 0.00 88 1017.4
20260504044406 57 319 0.0 0.0 0.00 0.00 0.00 88 1017.5
20260504043626 57 319 0.0 0.0 0.00 0.00 0.00 87 1017.5
20260504043121 58 319 0.0 0.0 0.00 0.00 0.00 87 1017.6
20260504042623 58 319 0.0 0.0 0.00 0.00 0.00 87 1017.6
20260504042123 58 319 0.0 0.0 0.00 0.00 0.00 87 1017.5
20260504041607 58 319 0.0 0.0 0.00 0.00 0.00 87 1017.6
20260504041104 58 319 0.0 0.0 0.00 0.00 0.00 86 1017.5
20260504040559 58 319 0.0 0.0 0.00 0.00 0.00 86 1017.6